EW3832 Weather Reports


time (UTC)temp
F
wind
direction
speed
knots
gust
knots
rain 1hr
in
rain 24hr
in
rain mn
in
humidity
%
barometer
mb
20260510120013 57 284 0.0 0.0 0.00 0.00 0.00 86 1022.3
20260510114511 57 284 0.0 0.0 0.00 0.00 0.00 85 1022.2
20260510113013 57 284 0.0 0.0 0.00 0.00 0.00 86 1022.1
20260510111509 58 284 0.0 0.0 0.00 0.00 0.00 84 1021.9
20260510110008 58 284 0.0 0.0 0.00 0.00 0.00 83 1021.8
20260510104509 58 284 0.0 0.0 0.00 0.00 0.00 84 1021.9
20260510103005 58 284 0.0 0.0 0.00 0.00 0.00 84 1021.8
20260510101503 59 284 0.0 0.0 0.00 0.00 0.00 82 1021.6
20260510100003 58 284 0.9 1.7 0.00 0.00 0.00 82 1021.3
20260510094601 59 256 0.0 0.9 0.00 0.00 0.00 82 1021.1
20260510093109 57 256 0.0 1.7 0.00 0.00 0.00 84 1020.9
20260510091559 58 308 0.0 1.7 0.00 0.00 0.00 85 1020.7
20260510090058 57 252 0.0 1.7 0.00 0.00 0.00 86 1020.8
20260510084602 56 240 0.0 1.7 0.00 0.00 0.00 86 1021.2
20260510083055 56 35 0.0 1.7 0.00 0.00 0.00 86 1020.8
20260510081621 56 35 0.0 1.7 0.00 0.00 0.00 84 1020.6
20260510080054 57 35 0.0 1.7 0.00 0.00 0.00 83 1020.5
20260510074548 57 355 0.0 0.0 0.00 0.00 0.00 84 1020.3
20260510073057 57 355 0.0 0.0 0.00 0.00 0.00 82 1020.3
20260510071546 57 355 0.0 0.9 0.00 0.00 0.00 83 1020.0
20260510070044 57 355 0.0 0.9 0.00 0.00 0.00 81 1020.1
20260510064553 58 346 0.0 0.0 0.00 0.00 0.00 81 1020.2
20260510063044 58 346 0.0 0.0 0.00 0.00 0.00 80 1020.4
20260510061546 58 346 0.0 0.9 0.00 0.00 0.00 80 1020.4
20260510060047 59 153 0.0 1.7 0.00 0.00 0.00 77 1020.6
20260510054538 60 273 0.0 0.0 0.00 0.00 0.00 75 1020.5
20260510053042 60 273 0.0 1.7 0.00 0.00 0.00 74 1020.4
20260510051536 61 273 0.0 0.0 0.00 0.00 0.00 74 1020.2
20260510050030 61 273 0.0 1.7 0.00 0.00 0.00 74 1020.1
20260510044630 62 273 0.0 0.0 0.00 0.00 0.00 70 1020.0
20260510043031 63 273 0.0 0.9 0.00 0.00 0.00 70 1020.0
20260510041527 64 273 0.0 0.9 0.00 0.00 0.00 65 1019.8
20260510040038 63 273 0.0 0.0 0.00 0.00 0.00 70 1019.6
20260510034524 64 273 0.0 0.0 0.00 0.00 0.00 69 1019.6
20260510033034 65 273 0.0 0.0 0.00 0.00 0.00 68 1019.3
20260510031522 65 273 0.0 1.7 0.00 0.00 0.00 66 1019.3
20260510030019 65 273 0.0 0.0 0.00 0.00 0.00 65 1019.1
20260510024517 65 273 0.0 1.7 0.00 0.00 0.00 64 1018.8
20260510023016 67 273 0.0 0.9 0.00 0.00 0.00 59 1018.5
20260510021517 68 273 0.0 0.0 0.00 0.00 0.00 55 1018.1
20260510020021 68 273 0.0 0.9 0.00 0.00 0.00 57 1017.8
20260510014515 70 273 0.0 0.0 0.00 0.00 0.00 52 1017.5
20260510013014 71 273 0.0 1.7 0.00 0.00 0.00 51 1017.3
20260510011518 72 273 0.0 1.7 0.00 0.00 0.00 49 1017.2
20260510010020 73 261 0.0 1.7 0.00 0.00 0.00 48 1017.1
20260510004515 74 250 0.0 0.0 0.00 0.00 0.00 46 1017.0
20260510003013 75 250 0.0 0.0 0.00 0.00 0.00 46 1016.8
20260510001512 76 250 0.0 1.7 0.00 0.00 0.00 43 1016.7
20260510000017 78 248 0.0 1.7 0.00 0.00 0.00 41 1016.7
20260509234517 79 213 0.0 1.7 0.00 0.00 0.00 40 1016.8
20260509233011 79 244 0.0 1.7 0.00 0.00 0.00 38 1016.8
20260509231513 80 247 0.0 1.7 0.00 0.00 0.00 39 1016.8
20260509230017 81 250 0.9 3.5 0.00 0.00 0.00 35 1016.8
20260509224508 82 245 0.9 3.5 0.00 0.00 0.00 34 1016.7
20260509223010 82 207 1.7 5.2 0.00 0.00 0.00 35 1016.6
20260509221507 83 109 0.9 3.5 0.00 0.00 0.00 39 1016.7
20260509220006 85 286 0.9 3.5 0.00 0.00 0.00 34 1016.8
20260509214502 84 69 0.0 3.5 0.00 0.00 0.00 31 1016.8
20260509213002 83 324 0.9 4.3 0.00 0.00 0.00 30 1016.8
20260509211501 84 267 0.9 4.3 0.00 0.00 0.00 32 1016.9
20260509204558 83 146 0.9 4.3 0.00 0.00 0.00 34 1017.0
20260509203111 83 49 0.9 1.7 0.00 0.00 0.00 34 1017.2
20260509201603 81 90 0.0 2.6 0.00 0.00 0.00 33 1017.3
20260509200107 81 327 1.7 4.3 0.00 0.00 0.00 33 1017.6
20260509194552 80 318 0.9 4.3 0.00 0.00 0.00 37 1017.7
20260509193110 82 67 0.9 5.2 0.00 0.00 0.00 37 1017.8
20260509191550 82 196 0.9 8.7 0.00 0.00 0.00 40 1017.8
20260509190149 81 269 1.7 4.3 0.00 0.00 0.00 36 1017.9
20260509184559 81 217 0.9 6.1 0.00 0.00 0.00 37 1017.9
20260509183044 80 230 1.7 5.2 0.00 0.00 0.00 39 1017.9
20260509181546 81 16 1.7 7.8 0.00 0.00 0.00 36 1018.0
20260509180041 80 188 0.0 3.5 0.00 0.00 0.00 39 1018.0
20260509174538 80 53 0.0 2.6 0.00 0.00 0.00 44 1018.1
20260509173042 79 234 0.0 3.5 0.00 0.00 0.00 44 1018.3
20260509171542 79 254 0.9 5.2 0.00 0.00 0.00 47 1018.3
20260509170032 78 208 0.0 7.0 0.00 0.00 0.00 48 1018.5
20260509164528 78 169 1.7 5.2 0.00 0.00 0.00 58 1018.6
20260509163026 76 157 0.9 4.3 0.00 0.00 0.00 50 1018.6
20260509161529 76 5 0.0 4.3 0.00 0.00 0.00 53 1018.6
20260509160025 75 269 1.7 4.3 0.00 0.00 0.00 54 1018.6
20260509154520 74 148 0.9 2.6 0.00 0.00 0.00 57 1018.6
20260509153015 73 342 0.0 1.7 0.00 0.00 0.00 61 1018.5
20260509151513 71 196 0.9 3.5 0.00 0.00 0.00 64 1018.5
20260509150009 70 238 0.0 3.5 0.00 0.00 0.00 68 1018.6
20260509144505 69 217 0.9 4.3 0.00 0.00 0.00 70 1018.7
20260509143003 67 268 0.9 4.3 0.00 0.00 0.00 73 1018.7
20260509141559 66 258 0.9 4.3 0.00 0.00 0.00 76 1018.6
20260509140100 65 214 0.0 1.7 0.00 0.00 0.00 77 1018.6
20260509134552 63 169 0.0 2.6 0.00 0.00 0.00 80 1018.6
20260509133052 62 119 0.0 1.7 0.00 0.00 0.00 81 1018.6
20260509131549 60 5 0.0 0.0 0.00 0.00 0.00 86 1018.3
20260509130050 57 5 0.0 0.0 0.00 0.00 0.00 90 1018.3
20260509124603 54 5 0.0 0.0 0.00 0.00 0.00 92 1018.2
20260509123046 53 5 0.0 0.0 0.00 0.00 0.00 92 1018.2
20260509121546 52 5 0.0 0.0 0.00 0.00 0.00 91 1017.9